Temperature
21 22 22 22 19 17 18 20 23 25 27 29 29 28 26 25 24 23 25 24 23 23 22 22 22 22 22 22 22 22 21 21 21 21 21 21 20 20 20 20 20 19 19 19 19 19 19 19 19
21 22 22 21 17 17 18 21 24 25 28 29 29 28 26 25 25 25 24 24 23 23 22 22 22 22 22 22 22 21 21 21 21 21 21 20 20 20 20 20 20 19 19 19 19 19 19 19 19
21 21 21 17 17 17 19 22 24 27 29 29 29 28 26 25 25 25 25 24 23 23 23 22 22 22 22 21 21 21 21 21 21 21 20 20 20 20 20 20 19 19 19 19 19 19 19 19 19
21 21 21 17 18 19 20 23 24 26 28 29 29 26 26 25 26 26 25 24 23 23 22 22 22 22 21 21 21 21 21 21 21 20 20 20 20 20 20 19 19 19 19 19 19 19 19 19 19
21 21 18 17 18 20 22 24 25 26 27 29 28 25 25 25 26 26 25 24 24 23 22 22 22 21 21 21 21 21 21 20 20 20 20 20 20 20 20 19 19 19 19 19 19 19 19 19 19
20 18 16 17 18 21 23 26 26 26 27 28 27 24 24 24 25 25 25 24 24 23 22 22 22 21 21 21 21 20 20 20 20 20 20 20 20 19 19 19 19 19 19 19 19 19 19 19 19
20 16 17 18 19 21 24 26 26 26 26 28 27 24 23 23 24 24 24 24 23 23 22 22 22 21 21 20 20 20 20 20 20 20 20 20 19 19 19 19 19 19 19 19 19 19 19 19 18
21 17 19 18 20 21 24 26 27 27 27 28 27 24 23 23 23 23 23 23 23 22 22 22 22 21 21 20 20 20 20 20 19 19 19 19 19 19 19 19 19 19 19 19 19 19 18 18 18
21 17 16 18 20 21 23 25 27 28 28 27 27 26 25 24 23 22 22 22 21 21 22 22 22 21 21 20 20 20 19 19 19 19 19 19 19 19 19 19 19 19 19 18 18 18 18 18 18
21 16 18 19 21 22 23 24 26 26 25 25 25 24 24 23 23 22 22 22 21 21 21 21 21 21 21 20 20 19 19 19 19 19 19 19 19 19 19 19 19 19 18 18 18 18 18 18 18
20 18 19 21 23 24 24 25 26 25 24 25 24 23 23 23 23 22 22 22 22 22 21 21 21 20 20 20 20 19 19 19 19 19 19 19 19 19 19 19 19 18 18 18 18 18 18 18 18
20 20 22 23 24 24 25 25 25 25 24 25 24 23 23 22 22 22 22 21 21 21 21 21 20 20 20 20 20 20 19 19 19 19 19 19 19 19 19 19 18 18 18 18 18 18 18 18 18
20 21 23 24 24 25 25 25 25 24 24 24 23 23 22 21 21 21 22 21 21 21 21 20 20 20 20 19 19 19 19 19 19 19 19 18 18 19 19 18 18 18 18 18 18 18 18 17 17
21 22 23 24 25 25 24 24 23 24 23 23 22 21 21 20 20 21 21 21 21 20 20 20 20 20 19 19 19 19 19 19 19 19 19 18 18 18 18 18 18 18 18 18 18 18 17 17 17
23 21 21 22 24 24 24 22 21 23 23 21 21 20 20 19 19 20 20 20 20 20 20 19 19 19 19 19 19 18 18 18 18 18 18 18 18 18 18 18 18 18 18 17 17 17 17 17 17
20 20 20 21 23 24 22 20 21 22 21 20 19 18 18 18 18 19 20 20 20 19 19 19 19 18 18 18 18 18 18 18 18 18 18 18 18 17 17 18 17 17 17 17 17 17 17 17 17
19 19 20 21 22 22 21 20 20 21 20 19 18 17 17 17 17 17 18 19 19 19 18 18 18 18 18 18 18 17 17 17 17 17 17 17 17 17 17 17 17 17 17 17 17 17 17 17 17
18 19 20 21 22 22 20 19 19 20 19 17 17 16 16 16 16 16 17 17 18 18 18 18 18 18 17 17 17 17 16 16 17 16 16 16 17 17 17 17 17 17 17 17 16 17 17 17 17
20 20 20 21 22 21 20 19 18 18 17 16 16 15 15 15 15 16 16 17 17 17 17 17 17 17 17 17 17 16 16 16 16 16 16 16 16 16 16 16 16 16 16 16 16 16 16 16 16
20 21 21 21 22 21 19 18 17 17 16 16 15 15 15 15 15 15 15 16 16 16 16 17 17 16 16 16 16 16 16 16 16 16 16 16 16 16 15 16 16 16 16 16 16 16 16 16 16
21 21 21 21 21 21 20 18 17 16 16 15 15 14 14 14 14 14 14 15 15 15 15 16 16 16 16 16 16 16 15 15 15 15 15 15 15 15 15 16 15 16 16 16 16 16 16 16 16
21 22 22 22 20 18 19 17 16 15 15 14 13 13 12 12 13 13 13 13 14 14 14 15 15 15 15 15 15 15 15 15 15 15 15 15 15 15 15 15 15 15 15 15 15 15 15 16 16
21 22 21 21 19 17 17 16 15 15 15 14 13 12 12 11 12 12 12 12 13 13 13 13 14 14 15 15 15 15 15 15 15 14 14 14 14 14 14 14 14 14 15 15 15 15 15 15 15
22 20 19 16 16 16 16 16 15 14 14 13 12 12 11 11 11 11 11 11 12 12 12 13 13 14 14 14 14 14 14 14 14 14 14 14 14 14 14 14 14 14 14 14 14 14 14 14 15
21 17 16 16 15 15 16 15 14 14 14 13 12 11 11 11 11 11 11 11 11 11 12 12 12 13 13 13 13 14 13 13 13 13 13 13 13 13 13 13 13 13 14 14 14 14 14 14 14
20 18 16 16 15 15 15 15 14 13 13 12 11 11 10 10 10 10 10 10 10 11 11 12 12 12 12 12 13 13 13 13 13 12 12 12 12 12 12 12 13 13 13 13 13 13 13 13 13
20 18 17 15 15 14 14 14 13 13 12 11 11 10 10 10 10 9 9 9 9 10 10 11 11 11 11 12 12 12 12 12 12 12 12 12 12 11 11 12 12 12 12 12 12 12 12 12 11
19 18 15 15 15 15 15 14 13 13 12 11 10 9 9 9 9 9 9 9 9 9 9 10 10 10 10 10 11 11 11 11 11 11 11 10 10 10 10 11 11 11 11 11 11 11 10 11 10
19 18 16 14 14 14 14 14 15 13 12 11 10 9 9 9 9 8 8 8 8 8 9 9 9 9 9 9 9 10 10 10 10 10 10 9 9 9 10 10 10 10 10 10 10 10 10 10 10
19 18 16 15 15 14 14 14 14 13 12 11 10 9 9 9 8 8 8 8 8 8 8 8 8 8 9 9 9 9 9 9 9 9 9 9 9 9 9 9 9 9 9 9 9 9 9 9 9
Wind_Speed
6 5 1 3 5 2 6 8 6 9 6 2 5 9 10 7 6 5 4 14 15 17 18 22 23 22 21 21 20 20 20 21 21 21 21 21 20 20 19 18 17 16 15 15 14 14 14 14 15
3 2 3 4 4 2 7 7 8 12 7 3 5 9 9 5 5 9 7 14 18 18 19 21 24 23 22 22 21 20 20 20 21 20 20 20 19 18 18 17 16 15 15 14 14 14 13 13 13
3 1 4 4 4 7 8 7 7 8 6 2 3 5 7 9 8 10 10 18 18 16 18 21 25 24 23 22 22 21 20 20 20 20 20 19 19 18 17 16 16 15 14 14 13 13 12 12 12
1 4 4 2 9 9 9 13 12 13 8 2 5 6 5 8 10 11 17 21 19 16 18 22 25 23 23 22 22 21 21 20 20 20 19 19 18 18 17 16 15 15 14 14 13 12 12 11 11
3 4 2 4 9 9 11 16 15 12 7 3 6 7 4 3 12 18 22 21 20 15 15 21 24 23 22 22 22 21 21 21 20 20 19 18 18 17 17 16 15 14 14 13 13 12 11 10 9
4 4 3 5 9 10 10 12 10 8 3 1 5 7 2 4 14 19 21 19 19 18 14 19 23 23 22 21 21 21 21 21 20 20 19 19 18 17 16 16 15 14 14 13 13 12 11 10 9
4 3 4 6 7 11 13 10 4 2 2 2 5 7 4 5 10 16 17 17 16 16 15 14 18 19 21 21 21 21 21 20 20 20 19 19 18 17 16 16 15 14 14 13 12 12 11 9 8
6 3 3 5 6 9 9 8 5 2 2 2 6 8 7 8 11 14 14 14 14 14 14 12 15 16 16 18 21 21 21 21 20 20 19 19 18 17 16 15 15 14 13 13 12 11 10 9 8
5 2 6 6 6 8 9 8 10 6 5 6 5 5 7 12 14 15 13 11 10 11 10 11 12 13 14 15 18 19 20 20 20 19 19 18 15 15 15 15 15 14 13 13 12 11 10 9 8
5 4 10 8 7 7 8 5 7 8 8 7 8 10 12 12 13 15 14 13 12 12 10 10 10 10 12 14 15 15 15 16 16 15 16 14 14 14 14 15 15 14 13 13 12 11 10 9 7
5 8 10 11 12 8 5 6 5 5 5 3 5 10 11 11 10 11 12 12 12 12 12 10 10 10 10 8 11 11 11 13 13 14 15 14 12 12 12 11 13 13 13 11 11 10 9 8 8
6 10 10 11 11 6 4 3 4 3 2 0 6 9 10 9 8 8 8 9 9 11 11 9 9 9 8 7 7 8 8 9 9 12 15 12 8 7 8 8 10 11 10 9 8 8 8 8 9
8 12 14 14 11 7 4 3 2 3 3 5 10 11 9 9 7 6 7 8 9 9 10 10 10 10 8 7 6 7 7 8 10 12 14 14 7 6 6 7 9 10 10 9 7 7 6 6 7
7 8 9 9 8 5 4 5 2 4 0 6 9 9 8 8 6 6 5 6 7 8 8 8 9 9 8 7 6 6 6 8 10 10 13 15 11 7 6 6 7 8 11 11 9 7 6 5 4
4 6 8 6 5 5 1 5 4 5 3 8 9 10 11 10 8 6 4 4 5 7 7 7 8 8 9 8 6 4 5 7 6 7 11 12 12 10 7 6 6 7 11 11 8 7 5 4 3
6 5 6 9 5 5 5 5 6 1 8 9 8 10 12 11 11 7 5 5 4 4 6 5 6 7 8 7 6 4 4 4 4 6 7 9 9 10 7 6 6 8 8 7 5 4 4 4 3
4 3 7 11 7 5 6 4 3 2 9 9 8 10 11 11 12 11 9 9 7 6 5 5 3 4 6 6 6 4 3 3 3 4 4 6 6 7 6 5 6 8 5 4 5 4 4 5 4
6 5 6 7 6 3 5 4 0 2 9 9 9 10 11 11 10 10 11 10 9 8 7 5 2 1 3 4 5 4 3 2 2 2 2 3 4 5 5 4 5 6 4 4 4 4 4 5 6
7 7 9 8 4 4 5 4 1 2 7 9 8 9 10 9 8 9 10 10 10 10 8 7 4 1 1 3 4 3 3 3 2 1 2 1 1 3 3 3 4 5 5 6 5 4 5 5 6
10 9 8 7 4 3 4 2 1 2 4 6 8 9 8 8 8 10 10 11 11 10 9 8 5 2 0 2 3 3 3 3 2 2 2 2 2 2 2 3 3 4 4 5 6 5 4 3 4
8 6 5 5 4 3 3 2 2 4 5 7 8 8 8 9 9 9 10 11 11 10 9 7 6 3 2 1 3 4 3 3 3 2 1 2 2 2 2 2 2 3 3 4 5 5 6 4 2
7 6 2 2 3 3 2 2 3 1 4 6 7 7 8 9 9 9 9 10 10 10 9 8 6 5 3 3 3 5 5 5 3 3 3 2 4 4 4 3 2 2 3 3 3 4 4 5 4
6 3 0 1 1 2 4 2 4 1 2 3 5 6 8 9 10 10 9 9 8 9 8 8 7 7 6 5 5 5 5 4 4 4 5 5 4 5 5 4 2 3 3 3 4 4 4 3 4
2 4 6 6 5 2 4 1 3 2 2 3 4 7 8 8 9 9 9 9 9 9 8 7 8 8 7 7 6 6 6 6 6 6 5 5 5 5 6 6 5 5 5 5 5 6 6 6 6
4 6 5 6 5 3 3 1 3 3 1 5 7 8 8 8 8 8 10 10 9 10 9 8 8 8 8 8 8 8 7 7 8 7 7 7 6 6 7 6 7 7 7 7 7 9 8 8 9
1 7 6 4 4 4 3 1 2 2 3 6 8 9 9 8 8 9 8 8 8 9 9 8 8 8 8 8 9 9 8 7 7 8 8 8 7 7 7 7 9 9 10 9 9 10 10 10 10
1 1 6 6 2 0 2 2 2 3 4 6 8 8 8 7 8 8 7 8 7 8 8 8 7 8 8 9 9 9 9 9 9 9 8 7 8 8 8 9 10 10 10 10 10 10 10 10 10
4 4 5 5 4 2 3 4 5 7 7 6 7 8 7 7 7 7 7 7 7 7 7 8 8 9 9 9 8 9 9 9 9 10 10 9 9 8 9 10 10 11 10 10 10 10 10 11 9
2 2 4 4 5 5 4 6 4 9 11 9 9 8 8 8 7 6 6 6 6 7 7 8 8 9 9 9 8 9 9 9 10 10 10 9 9 9 10 10 11 11 11 10 11 11 11 12 10
3 3 5 4 3 5 4 6 1 7 9 11 11 10 8 8 7 7 6 5 5 6 6 7 8 8 8 8 9 9 9 10 10 10 10 10 10 9 10 10 11 11 10 10 10 11 10 11 11
Wind_Direction
277 285 107 53 52 35 254 251 254 294 295 260 122 116 118 120 147 171 178 153 152 153 160 161 157 155 152 149 146 142 138 134 131 128 126 124 124 123 124 124 125 125 125 124 123 121 120 120 120
293 270 72 65 99 248 262 250 260 264 248 209 109 115 105 89 117 129 137 159 154 153 158 162 160 158 156 154 151 148 144 141 137 134 132 130 129 128 128 128 128 128 128 128 126 124 124 123 123
278 231 96 96 175 205 243 258 273 286 276 192 121 99 113 136 138 153 164 154 148 150 157 162 161 161 160 158 155 153 150 147 144 141 138 136 135 133 133 133 134 133 131 130 129 129 128 127 126
41 54 57 108 245 240 243 272 287 290 288 263 125 97 103 149 156 158 147 148 146 151 157 162 162 162 162 161 159 157 155 152 150 147 145 143 141 140 138 139 139 139 137 136 135 134 133 132 130
70 83 70 278 261 262 261 268 273 272 252 224 124 109 89 126 134 140 144 149 149 151 155 161 162 163 163 163 162 161 159 158 156 153 151 149 147 146 144 145 145 144 143 143 142 141 140 137 135
53 74 119 252 265 278 280 270 266 258 253 132 106 103 69 119 136 147 149 151 151 150 151 159 162 164 166 167 166 165 163 162 160 158 156 154 153 151 150 150 150 150 150 149 148 147 147 147 145
126 119 206 244 281 293 289 293 269 235 91 91 114 102 113 140 146 145 145 143 143 145 148 153 161 165 169 170 169 167 166 165 164 162 160 159 158 158 157 156 156 156 155 154 153 152 154 155 157
151 107 278 275 281 285 295 327 328 46 79 72 99 126 161 177 139 133 132 132 138 144 150 155 159 162 167 172 173 171 170 169 168 167 165 164 164 164 164 161 161 161 161 161 161 161 164 168 173
122 93 262 258 257 273 307 342 334 350 39 36 58 127 151 137 125 124 126 126 136 144 152 158 160 161 164 170 177 175 174 174 172 172 171 168 168 168 169 169 169 169 169 170 172 173 176 183 193
124 182 239 235 236 265 298 325 334 17 20 30 47 70 101 115 122 130 142 146 151 156 161 161 162 164 166 174 173 173 176 176 174 174 174 171 170 172 173 176 178 178 178 180 183 185 189 197 212
181 211 244 257 256 255 289 324 354 42 10 25 107 121 119 119 124 135 146 151 155 160 161 162 165 168 171 173 167 171 174 175 176 176 174 172 173 177 177 178 183 184 184 185 190 193 199 208 221
231 254 249 257 261 256 257 300 348 16 274 170 113 122 126 125 126 135 143 150 150 152 159 159 164 166 169 165 168 169 172 177 180 181 178 175 178 184 182 183 184 184 186 187 190 196 206 219 231
238 255 262 257 262 256 259 270 277 302 302 63 83 93 107 117 127 131 138 144 144 155 163 163 163 165 169 165 171 175 178 182 183 183 187 186 185 187 187 186 186 189 190 192 195 201 210 223 232
248 261 267 261 256 257 256 285 322 274 38 71 75 78 84 91 94 91 97 121 136 154 162 158 162 165 164 172 179 181 183 183 184 187 192 195 193 185 185 184 185 192 197 202 203 203 204 213 214
293 315 312 290 267 260 42 325 275 245 91 81 79 81 71 70 75 81 105 129 145 149 152 166 169 163 171 172 174 175 178 175 181 190 194 195 195 188 184 185 188 195 198 200 200 204 199 197 199
356 355 309 290 273 254 141 250 279 256 102 98 90 82 74 63 60 58 77 88 91 120 128 147 176 173 175 167 164 160 167 164 174 184 190 194 195 191 182 182 188 189 185 189 188 194 185 187 176
352 295 278 290 267 221 149 201 279 112 109 107 101 91 81 65 50 42 47 62 67 71 79 106 141 176 184 168 161 162 146 132 151 174 178 181 180 195 188 186 185 177 176 184 193 190 171 166 154
253 268 282 282 286 147 143 173 197 101 114 115 107 95 86 72 52 43 45 50 55 62 63 59 74 173 189 159 142 141 138 143 133 145 161 178 179 193 197 189 178 169 171 186 187 179 165 154 141
251 276 288 291 300 100 127 139 149 98 99 107 105 99 92 82 60 47 42 41 43 43 46 43 38 39 162 145 146 156 163 149 130 136 107 113 158 187 202 193 181 178 180 189 182 171 159 155 135
249 260 279 300 329 94 129 110 66 62 98 114 112 103 97 83 61 45 35 34 39 34 33 36 39 24 334 160 166 160 138 116 117 91 80 77 132 161 186 175 195 183 170 183 181 165 162 168 161
258 243 256 276 328 26 105 21 19 32 71 75 78 90 92 86 70 50 35 31 31 27 22 24 22 35 25 92 128 122 116 116 112 116 100 66 83 104 106 136 174 164 172 190 189 179 171 175 177
254 252 251 324 26 323 48 264 306 71 60 68 67 71 77 77 73 59 44 36 28 19 12 16 19 21 31 83 118 144 145 138 140 129 114 86 56 53 61 81 112 142 151 160 178 182 175 164 165
230 232 137 352 62 28 9 97 294 42 55 72 73 74 68 66 65 56 44 35 28 21 14 6 13 27 35 68 100 109 119 123 119 111 101 85 66 56 55 64 87 117 121 126 128 125 128 140 150
197 49 27 39 61 32 305 163 285 283 227 151 116 98 88 77 65 53 42 30 24 23 21 16 25 31 34 54 73 91 112 115 109 102 98 84 75 65 60 66 75 86 90 93 97 99 101 103 100
62 76 22 355 7 269 296 116 248 288 252 158 138 117 99 83 69 52 39 29 22 22 23 31 36 35 37 54 68 79 87 89 92 92 90 86 80 71 63 70 74 76 75 79 82 84 82 85 88
200 142 163 209 229 263 325 226 254 6 81 113 116 108 95 83 71 58 44 32 25 23 25 37 44 46 47 59 70 76 80 83 82 81 85 82 81 75 67 71 74 73 73 77 80 81 80 81 83
171 212 171 143 142 120 273 258 265 130 120 120 114 107 93 84 77 66 52 42 35 31 29 35 47 55 58 66 72 75 78 83 88 87 83 81 78 78 71 73 74 72 72 74 79 82 79 80 80
150 153 88 112 147 223 259 249 231 195 192 165 137 123 110 97 88 81 66 54 43 39 37 38 47 58 62 67 73 78 76 81 85 88 85 80 76 77 79 78 77 75 73 73 79 81 79 80 75
356 83 113 121 151 162 232 257 224 190 187 171 150 135 128 115 104 92 77 64 56 50 49 52 53 60 63 66 71 75 77 80 83 83 83 83 79 77 77 79 80 78 76 75 80 81 80 80 75
163 182 147 152 211 180 192 258 296 174 170 155 145 138 131 119 109 99 89 78 65 58 57 60 61 64 63 66 73 75 77 79 80 81 80 81 81 77 77 77 77 78 76 75 79 83 78 80 78
Height
1519 1520 1521 1522 1525 1534 1533 1516 1503 1496 1492 1487 1485 1487 1491 1496 1503 1511 1506 1506 1509 1513 1517 1521 1524 1526 1528 1530 1531 1533 1534 1536 1537 1539 1541 1542 1544 1546 1548 1549 1551 1552 1554 1555 1556 1557 1558 1559 1561
1517 1519 1521 1521 1531 1542 1532 1509 1500 1493 1488 1486 1486 1486 1490 1495 1497 1499 1502 1505 1508 1512 1516 1520 1523 1525 1528 1530 1532 1533 1535 1536 1538 1539 1541 1543 1545 1546 1548 1549 1551 1552 1554 1555 1556 1558 1559 1560 1561
1516 1518 1520 1523 1531 1535 1522 1502 1495 1489 1487 1484 1484 1486 1489 1493 1496 1498 1500 1504 1507 1511 1515 1518 1522 1525 1527 1530 1532 1533 1535 1536 1538 1539 1541 1543 1545 1546 1548 1550 1551 1552 1554 1555 1556 1558 1559 1560 1561
1515 1518 1519 1526 1527 1517 1508 1497 1494 1491 1487 1483 1483 1487 1490 1493 1493 1496 1499 1503 1506 1510 1514 1518 1521 1525 1527 1530 1532 1533 1535 1537 1538 1540 1541 1543 1545 1546 1548 1550 1551 1552 1554 1555 1556 1558 1559 1560 1562
1515 1516 1523 1528 1522 1508 1499 1494 1492 1489 1485 1483 1482 1487 1491 1493 1494 1496 1498 1502 1506 1510 1514 1518 1521 1524 1527 1530 1532 1534 1535 1537 1538 1540 1541 1543 1545 1546 1548 1549 1551 1552 1554 1555 1556 1558 1559 1560 1562
1515 1516 1530 1532 1519 1504 1496 1490 1488 1485 1482 1481 1483 1487 1493 1494 1494 1495 1498 1502 1505 1509 1513 1517 1521 1524 1527 1530 1532 1534 1535 1537 1539 1540 1541 1543 1545 1546 1548 1549 1551 1552 1553 1555 1556 1558 1559 1561 1562
1515 1520 1526 1522 1516 1507 1493 1487 1484 1481 1480 1481 1482 1488 1493 1495 1496 1497 1499 1503 1506 1509 1513 1516 1520 1523 1526 1530 1532 1534 1536 1537 1539 1540 1542 1543 1545 1546 1547 1549 1550 1552 1553 1555 1556 1557 1559 1561 1562
1512 1517 1519 1519 1515 1507 1493 1488 1484 1481 1481 1481 1482 1487 1492 1494 1496 1498 1501 1504 1507 1509 1513 1516 1519 1522 1525 1528 1531 1534 1535 1537 1539 1540 1542 1543 1544 1546 1547 1549 1550 1551 1553 1554 1556 1557 1559 1561 1562
1511 1520 1524 1517 1511 1504 1494 1490 1486 1484 1483 1482 1483 1485 1488 1493 1496 1499 1502 1505 1507 1510 1513 1516 1518 1520 1524 1527 1530 1533 1535 1536 1538 1540 1541 1543 1544 1545 1547 1548 1550 1551 1553 1554 1556 1557 1559 1561 1562
1508 1520 1514 1505 1501 1499 1494 1492 1488 1486 1485 1485 1486 1487 1490 1494 1496 1498 1500 1502 1505 1509 1512 1515 1517 1519 1522 1525 1528 1530 1533 1535 1537 1538 1540 1542 1543 1545 1546 1548 1549 1551 1552 1554 1555 1557 1558 1560 1562
1504 1508 1501 1497 1496 1495 1493 1491 1489 1488 1490 1489 1489 1490 1491 1494 1496 1497 1499 1501 1503 1506 1509 1513 1516 1518 1520 1523 1525 1528 1531 1533 1535 1537 1539 1541 1542 1544 1545 1547 1548 1550 1551 1553 1554 1556 1558 1559 1561
1502 1498 1496 1493 1492 1492 1491 1489 1489 1489 1491 1490 1490 1490 1492 1494 1496 1497 1499 1501 1503 1505 1507 1510 1513 1516 1519 1520 1523 1526 1528 1531 1533 1535 1537 1539 1541 1542 1544 1545 1547 1548 1550 1551 1553 1555 1557 1559 1560
1499 1495 1491 1489 1489 1489 1488 1488 1488 1489 1490 1490 1490 1491 1493 1494 1496 1497 1498 1500 1502 1503 1505 1508 1511 1514 1517 1518 1521 1524 1526 1529 1531 1533 1535 1537 1539 1540 1542 1543 1545 1547 1548 1550 1552 1553 1555 1557 1559
1493 1491 1488 1486 1485 1485 1486 1487 1488 1489 1489 1489 1490 1491 1493 1494 1496 1497 1498 1499 1500 1501 1504 1506 1509 1512 1515 1517 1519 1521 1524 1526 1529 1531 1533 1535 1537 1538 1539 1541 1543 1544 1546 1548 1550 1552 1554 1556 1557
1491 1490 1487 1483 1482 1482 1485 1490 1489 1488 1488 1489 1491 1492 1493 1494 1495 1496 1497 1498 1499 1500 1503 1505 1507 1509 1512 1514 1516 1519 1521 1523 1526 1528 1530 1532 1534 1535 1537 1538 1540 1542 1543 1546 1548 1550 1552 1554 1555
1491 1494 1497 1485 1481 1480 1489 1499 1489 1487 1487 1490 1492 1493 1494 1494 1495 1495 1495 1497 1498 1500 1501 1502 1505 1507 1509 1511 1513 1515 1517 1520 1522 1525 1527 1528 1530 1532 1534 1535 1536 1539 1540 1543 1545 1547 1549 1551 1553
1500 1505 1501 1490 1478 1479 1487 1496 1489 1488 1487 1490 1491 1493 1494 1494 1495 1496 1495 1495 1496 1498 1500 1501 1503 1504 1506 1508 1509 1511 1513 1516 1518 1520 1523 1524 1525 1527 1529 1531 1533 1535 1537 1539 1541 1543 1546 1547 1550
1507 1503 1498 1493 1479 1479 1487 1492 1489 1487 1486 1488 1490 1492 1493 1494 1496 1497 1496 1496 1496 1496 1498 1500 1500 1501 1503 1505 1507 1508 1510 1511 1514 1516 1518 1520 1521 1523 1525 1527 1529 1531 1533 1535 1538 1540 1542 1544 1546
1497 1498 1497 1487 1477 1482 1488 1492 1491 1489 1488 1489 1490 1491 1492 1494 1496 1497 1497 1496 1495 1496 1497 1497 1497 1497 1499 1502 1504 1506 1507 1508 1510 1512 1514 1516 1517 1518 1520 1521 1524 1526 1528 1531 1533 1536 1538 1541 1543
1492 1495 1492 1485 1478 1482 1490 1494 1492 1491 1490 1490 1490 1491 1492 1494 1494 1495 1496 1495 1495 1495 1496 1496 1496 1497 1498 1500 1501 1503 1505 1506 1506 1508 1511 1513 1514 1515 1515 1516 1519 1522 1524 1527 1529 1532 1534 1536 1539
1487 1489 1488 1486 1481 1482 1489 1498 1496 1495 1494 1495 1494 1494 1494 1493 1494 1495 1496 1495 1494 1495 1494 1494 1495 1496 1497 1498 1499 1500 1502 1503 1504 1506 1507 1509 1509 1510 1512 1513 1515 1517 1519 1522 1525 1528 1529 1532 1534
1488 1478 1479 1481 1490 1499 1494 1510 1502 1499 1499 1499 1499 1498 1497 1496 1496 1496 1496 1496 1495 1495 1495 1494 1494 1495 1496 1497 1498 1499 1499 1500 1502 1502 1503 1504 1505 1506 1508 1510 1512 1513 1515 1518 1520 1523 1525 1528 1530
1478 1474 1477 1481 1488 1499 1500 1508 1508 1500 1502 1502 1502 1501 1501 1499 1497 1498 1497 1497 1497 1496 1496 1495 1494 1494 1495 1495 1496 1496 1497 1498 1499 1500 1501 1501 1502 1503 1505 1507 1509 1510 1512 1514 1517 1519 1521 1523 1526
1471 1477 1483 1490 1499 1512 1506 1508 1511 1505 1501 1500 1501 1502 1502 1501 1500 1500 1499 1498 1497 1496 1496 1495 1494 1494 1493 1493 1494 1495 1495 1496 1497 1499 1499 1499 1500 1501 1502 1505 1506 1507 1509 1511 1513 1515 1517 1519 1522
1473 1492 1509 1512 1520 1517 1504 1507 1510 1501 1497 1497 1499 1501 1501 1501 1501 1501 1500 1499 1498 1497 1496 1495 1494 1494 1493 1493 1493 1494 1495 1496 1497 1498 1498 1498 1499 1499 1501 1503 1505 1506 1507 1509 1511 1513 1515 1516 1519
1475 1487 1510 1519 1522 1517 1507 1508 1506 1501 1499 1498 1500 1501 1501 1501 1501 1501 1501 1501 1500 1498 1497 1495 1495 1494 1494 1494 1494 1494 1495 1496 1497 1497 1498 1499 1499 1500 1502 1504 1505 1506 1507 1509 1511 1513 1514 1516 1518
1477 1484 1487 1504 1510 1518 1513 1507 1504 1500 1500 1501 1501 1502 1502 1503 1503 1504 1503 1503 1502 1500 1498 1497 1496 1495 1494 1494 1494 1495 1496 1496 1497 1498 1499 1500 1500 1502 1504 1505 1506 1507 1509 1510 1512 1513 1515 1517 1519
1472 1478 1493 1503 1514 1519 1513 1508 1505 1499 1499 1500 1502 1502 1503 1504 1505 1505 1505 1504 1503 1502 1501 1500 1499 1497 1496 1496 1496 1497 1497 1498 1498 1499 1500 1502 1503 1505 1506 1507 1508 1510 1511 1512 1514 1515 1517 1519 1520
1475 1480 1489 1500 1504 1514 1518 1509 1490 1492 1494 1497 1500 1502 1504 1505 1506 1506 1506 1506 1506 1505 1504 1503 1501 1500 1500 1500 1500 1499 1500 1501 1501 1502 1503 1505 1506 1507 1509 1510 1511 1512 1514 1516 1517 1518 1520 1521 1522
1473 1477 1485 1498 1501 1502 1508 1506 1487 1488 1490 1494 1498 1502 1504 1506 1507 1507 1508 1508 1508 1508 1507 1505 1505 1504 1503 1503 1503 1503 1503 1504 1504 1505 1507 1508 1510 1511 1513 1514 1514 1516 1518 1519 1520 1521 1523 1524 1525